This demonstration page uses our WeatherBlox Daily Observations layout. Learn more.

Left ArrowRight Arrow

39.12711, -84.51439

Hourly Observations for May 15, 2018

Temp ( °F °C ) Dew Point ( °F °C ) Humidity (%) Winds ( mph kmh ) Pressure ( in mb ) Visibility ( mi km ) Precip ( " mm )
12:53 am 00:53 Clear 72 22.2 65 18.3 79 79 VRB 3 6 29.86 1011 10 16 0.00 0.00
1:53 am 01:53 Clear 69 20.6 65 18.3 87 87 Calm 29.86 1011 9 14 0.00 0.00
2:53 am 02:53 Clear 69 20.6 65 18.3 87 87 S 3 6 29.87 1011 9 14 0.00 0.00
3:53 am 03:53 Clear 68 20 65 18.3 90 90 Calm 29.85 1011 7 11 0.00 0.00
4:53 am 04:53 Clear 67 19.4 66 18.9 97 97 Calm 29.87 1011 7 11 0.00 0.00
5:53 am 05:53 Mostly Clear with Mist and Fog 65 18.3 64 17.8 97 97 Calm 29.88 1012 6 10 0.00 0.00
6:53 am 06:53 Partly Cloudy 68 20 66 18.9 93 93 Calm 29.91 1013 10 16 0.00 0.00
7:53 am 07:53 Sunny 74 23.3 66 18.9 76 76 SW 7 11 29.92 1013 10 16 0.00 0.00
8:53 am 08:53 Sunny 78 25.6 63 17.2 60 60 SW 9 15 29.91 1013 10 16 0.00 0.00
9:53 am 09:53 Sunny 80 26.7 62 16.7 54 54 WSW 6 9 29.91 1013 10 16 0.00 0.00
10:53 am 10:53 Sunny 82 27.8 64 17.8 55 55 S 7 11 29.91 1013 10 16 0.00 0.00
11:53 am 11:53 Sunny 83 28.3 64 17.8 53 53 S 6 9 29.92 1013 10 16 0.00 0.00
12:53 pm 12:53 Sunny 86 30 63 17.2 46 46 W 5 7 29.93 1013 10 16 0.00 0.00
1:53 pm 13:53 Mostly Sunny 88 31.1 64 17.8 45 45 W 7 11 29.90 1013 10 16 0.00 0.00
2:53 pm 14:53 Mostly Sunny 88 31.1 62 16.7 42 42 WSW 7 11 29.88 1012 10 16 0.00 0.00
3:53 pm 15:53 Mostly Sunny 88 31.1 62 16.7 42 42 W 9 15 29.86 1011 10 16 0.00 0.00
4:53 pm 16:53 Partly Cloudy 88 31.1 62 16.7 42 42 SW 7 11 29.85 1011 10 16 0.00 0.00
5:53 pm 17:53 Mostly Cloudy 86 30 61 16.1 43 43 W 8 13 29.85 1011 10 16 0.00 0.00
6:38 pm 18:38 Mostly Cloudy 84 28.9 64 17.8 51 51 N 10 17 29.88 1012 10 16 0.00 0.00
6:53 pm 18:53 Mostly Cloudy 83 28.3 65 18.3 55 55 N 14 22 29.86 1011 10 16 0.00 0.00
7:53 pm 19:53 Sunny 78 25.6 68 20 71 71 ENE 12 19 29.87 1012 10 16 0.00 0.00
8:53 pm 20:53 Clear 75 23.9 66 18.9 74 74 ENE 8 13 29.89 1012 10 16 0.00 0.00
9:53 pm 21:53 Clear 72 22.2 66 18.9 82 82 NNE 8 13 29.91 1013 10 16 0.00 0.00
10:53 pm 22:53 Clear 72 22.2 66 18.9 82 82 NE 8 13 29.92 1013 10 16 0.00 0.00
11:53 pm 23:53 Cloudy 71 21.7 67 19.4 87 87 NE 8 13 29.94 1014 10 16 0.00 0.00

Powered by AerisWeather